Location: Poughquag
(41.6090°N, 73.6820°W)
Time: 14:52:22
(UTC-05:00)

Vanguard 2 Rocket - Visible Passes

Search period start: 26 February 2020 00:00
Search period end: 07 March 2020 00:00
Orbit: 553 x 3327 km, 32.9° (Epoch: 26 February)

Date Brightness Start Highest point End Pass type
(mag) Time Alt. Az. Time Alt. Az. Time Alt. Az.
26 Feb 9.9 17:39:09 10° SW 17:57:57 48° SSE 18:12:45 10° E visible
26 Feb 8.9 19:55:50 10° WSW 20:14:41 61° S 20:19:27 46° SE visible
26 Feb 9.5 22:14:47 10° W 22:25:15 38° WSW 22:25:15 38° WSW visible
27 Feb 9.4 18:53:42 10° WSW 19:13:15 60° S 19:23:15 25° ESE visible
27 Feb 8.9 21:12:05 10° W 21:29:03 57° SSW 21:29:03 57° SSW visible
27 Feb 10.3 23:31:43 10° W 23:34:52 16° W 23:34:52 16° W visible
28 Feb 9.8 17:52:05 10° SW 18:11:35 56° SSE 18:26:58 10° E visible
28 Feb 8.9 20:09:30 10° WSW 20:28:31 62° S 20:32:51 49° SE visible
28 Feb 9.7 22:28:47 10° W 22:38:39 34° WSW 22:38:39 34° WSW visible
29 Feb 9.4 19:07:14 10° WSW 19:27:04 63° S 19:36:38 28° ESE visible
29 Feb 9.1 21:25:58 10° W 21:42:26 52° SSW 21:42:26 52° SSW visible
29 Feb 10.5 23:46:20 10° W 23:48:14 13° W 23:48:14 13° W visible
01 Mar 9.8 18:05:26 10° WSW 18:25:17 62° S 18:40:24 12° E visible
01 Mar 9.0 20:23:19 10° W 20:42:18 60° SSW 20:46:12 50° SSE visible
01 Mar 9.9 22:42:58 10° W 22:52:00 29° WSW 22:52:00 29° WSW visible
02 Mar 9.4 19:20:57 10° W 19:40:52 64° S 19:49:59 31° ESE visible
02 Mar 9.3 21:39:57 10° W 21:55:46 45° SW 21:55:46 45° SW visible
03 Mar 9.7 18:19:01 10° WSW 18:39:02 65° S 18:53:45 14° ESE visible
03 Mar 9.1 20:37:12 10° W 20:55:55 55° SSW 20:59:33 48° SSE visible
03 Mar 10.1 22:57:30 10° W 23:05:21 23° WSW 23:05:21 23° WSW visible
04 Mar 9.4 19:34:48 10° W 19:54:35 61° SSW 20:03:20 32° SE visible
04 Mar 9.6 21:54:07 10° W 22:09:08 37° SW 22:09:08 37° SW visible
05 Mar 9.7 18:32:48 10° W 18:52:48 65° S 19:07:08 16° ESE visible
05 Mar 9.3 20:51:12 10° W 21:09:21 48° SSW 21:12:56 43° S visible
05 Mar 10.4 23:12:51 10° W 23:18:44 17° WSW 23:18:44 17° WSW visible
06 Mar 9.5 19:48:43 10° W 20:08:11 56° SSW 20:16:45 32° SE visible
06 Mar 9.9 22:08:38 10° W 22:22:34 29° SW 22:22:34 29° SW visible
